COSMOS 2251 DEB, 36045

Orbit data source: Space-Track

COSMOS 2251 DEB, 36045 is space debris in LEO originally from a launch on Wed, 16 Jun 1993 UTC launched from the Plesetsk Missile And Space Complex (PKMTR). The debris from Iridium 33, an American commercial communications satellite, has been tracked extensively since its accidental collision with the defunct Russian satellite Cosmos 2251 in 2009. This event, occurring at high speed in low Earth orbit (LEO), generated thousands of pieces of space debris, significantly increasing the risk of further collisions. The Iridium 33 debris cloud has impacted space traffic management and orbital debris mitigation strategies, making it a subject of ongoing study in space situational awareness.

Loading next visibility...
Identifier
36045, 1993-036AXG
Orbit
LEO
Country
Flag of CISCIS
Related business
Manufacturer
Unknown
Mission
Spacecraft
Bus & Motor
Unknown
Mass
Unknown
Launch date (UTC)
1993-06-16 (33 years ago)
Launch vehicle
Unknown
Launch site
Plesetsk Missile And Space Complex (PKMTR)
Object type
Payload
Rocket body
Debris
Shape & HBR
Unknown shape, 0.1 m
Radar Cross Section
Small (<0.1 m²)

Expand to show TLE details & history
Last TLE update: 1 week ago

TLE from 1 week ago
0 COSMOS 2251 DEB
1 36045U 93036AXG 26251.26437041  .00008348  00000-0  11924-2 0  9994
2 36045  73.7587 244.8440 0045716 217.7472 142.0492 14.76110994123589
Epoch: 2026-09-08T06:20Z
TLE epoch observation values (Epoch: 2026-09-08T06:20:41.603Z)
Latitude
0.00001°
Longitude
162.33738°
Altitude
669.635 km
Speed
7.509 km/s
True Right ascension
16h 19m 22s
True Declination
0° 00' 00"
Sunlit
Object was in daylight at epoch
Visualization orbit readout
Latitude
Unknown
Longitude
Unknown
Altitude
Unknown
Speed
Unknown
Apparent Right ascension
Unknown
Apparent Declination
Unknown
Sunlit
N/A
Visualization observer readout
Local Sidereal Time
17:30:56
Azimuth
Unknown
Elevation
Unknown
Doppler factor
Unknown
Orbital elements
Apogee altitude
671.311 km
Perigee altitude
607.15 km
Semi-major axis
7,017.368 km
Eccentricity
0.00457
Inclination
73.7587°
RAAN
244.844°
Arg. of periapsis
217.7472°
True anomaly
142.36992°
Mean anomaly
142.0492°
Eccentric anomaly
142.20971°
Mean motion
3.69217 °/min
Orbital period
97.5 mins
BSTAR
0.0011924
Loading maneuver chart data...
Computing Atmospheric mass density...

Documentation

Showing up to 5 results
|